Location: Waco, TX
(31.5480°N, 97.1670°W)
Time: 04:32:12
(UTC-05:00)

ISS - Pass Details

Date: 08 May 2021
Orbit: 417 x 422 km, 51.6° (Epoch: 15 May)

Event Time Altitude Azimuth Distance (km) Brightness Sun altitude
Rises 00:13:48 0° 223° (SW) 2,344 - -38.4°
Reaches altitude 10° 00:15:53 10° 223° (SW) 1,485 - -38.5°
Maximum altitude 00:19:13 86° 136° (SE) 421 - -38.8°
Drops below altitude 10° 00:22:35 10° 46° (NE) 1,496 - -39.0°
Sets 00:24:41 0° 46° (NE) 2,363 - -39.2°
